Temp
29 28 28 27 27 26 26 26 25 23 22 20 20 19 18 18 18 18 19 19 19 20 19 19 19 19 19 19 17 17 17 17 17 16 16 16 16 17 17 17 17 17 17
29 29 28 28 27 26 26 26 26 25 23 22 21 21 20 18 18 18 18 18 19 20 19 19 20 19 19 19 18 17 17 17 17 16 16 16 17 17 17 18 18 18 18
29 30 28 28 28 26 26 26 26 26 26 24 21 20 19 19 18 19 19 19 19 19 20 20 19 20 19 19 19 18 18 18 17 16 16 16 16 18 19 19 18 18 18
29 29 30 28 28 28 27 26 26 26 26 26 24 22 22 20 22 21 21 20 19 19 21 21 20 19 19 19 20 19 18 17 18 17 16 17 17 18 17 18 18 17 17
28 29 30 30 28 28 28 27 27 26 26 25 25 24 23 23 21 20 20 20 20 19 20 20 21 21 20 19 19 19 19 17 17 17 17 17 17 17 17 17 17 17 17
27 28 29 28 29 26 26 26 26 26 26 26 25 25 24 24 22 20 20 21 20 20 19 20 20 20 20 20 20 19 18 18 17 17 17 17 17 18 17 16 17 17 17
26 27 29 28 28 27 25 25 26 26 26 25 25 24 24 24 24 23 22 21 20 20 20 20 20 20 20 20 19 18 18 18 17 17 17 17 17 16 16 16 16 16 16
25 25 26 28 27 27 27 26 25 25 25 25 25 24 24 24 24 23 23 22 21 21 21 21 20 20 20 20 19 19 18 17 17 17 17 17 17 17 16 16 16 15 15
25 25 25 25 26 26 25 25 26 25 23 24 24 23 23 22 23 23 22 22 21 21 20 20 20 20 20 19 19 19 19 17 17 17 16 16 16 16 16 15 15 15 15
23 25 24 23 24 24 25 25 24 24 24 24 22 22 22 21 20 20 20 20 21 20 20 19 19 19 19 19 19 18 18 17 17 17 16 16 16 16 15 15 15 15 15
19 22 22 23 22 22 22 22 23 23 22 22 22 22 21 21 21 20 20 20 20 20 19 19 19 19 19 19 18 18 18 17 17 16 16 16 16 16 15 15 14 15 15
18 18 19 20 21 21 21 21 20 21 21 21 20 20 19 19 20 19 20 19 19 19 19 19 19 19 19 19 18 18 18 17 17 16 16 16 15 15 15 14 14 15 15
18 18 18 18 19 19 20 20 20 19 19 19 18 18 18 18 18 18 19 19 19 18 18 18 18 18 19 19 19 18 18 18 18 16 15 15 15 14 14 14 14 14 14
17 18 18 18 18 18 19 19 19 19 19 19 18 18 18 18 19 19 18 18 18 18 18 18 18 18 18 18 18 18 18 18 17 15 14 15 15 15 15 15 14 14 14
16 17 17 17 17 17 17 17 18 18 18 18 18 18 18 17 17 18 18 18 18 18 18 18 18 17 18 18 18 18 18 17 17 15 15 15 15 15 15 15 15 14 13
14 14 15 15 15 15 16 16 16 17 17 17 17 17 17 17 17 16 17 17 17 17 17 17 17 17 17 17 17 17 17 17 16 15 14 15 15 14 14 14 14 14 14
11 12 13 13 13 14 15 15 14 14 15 16 16 16 16 16 17 16 16 17 17 16 17 16 16 16 17 17 17 17 17 16 16 16 14 14 14 14 15 14 14 12 12
9 9 9 10 11 12 13 13 14 14 14 14 14 14 15 15 15 15 15 15 16 17 17 16 16 16 16 16 16 16 16 16 16 16 15 15 14 14 14 14 14 12 11
8 8 9 9 10 10 10 11 12 13 13 14 14 14 14 14 14 14 14 14 13 14 15 16 15 15 16 16 16 16 15 15 16 16 15 15 14 14 14 14 13 12 11
7 7 7 8 9 10 9 9 10 11 12 12 13 13 14 14 14 14 14 14 13 13 13 14 14 14 15 15 15 15 15 16 16 15 15 14 14 14 14 14 13 12 11
6 7 7 6 7 8 8 8 9 10 11 11 12 13 13 14 14 14 13 13 13 13 12 12 12 12 13 14 14 14 14 15 15 15 14 14 13 13 12 13 12 12 11
4 4 5 5 5 6 6 7 8 10 10 9 10 12 12 13 13 13 13 13 12 12 11 11 11 11 11 12 13 13 14 14 14 14 14 14 12 11 11 10 10 9 9
3 3 3 3 4 4 4 5 7 7 8 8 8 10 12 11 13 13 13 13 12 11 11 11 11 11 10 11 12 12 12 13 13 13 13 12 12 10 10 9 9 8 9
2 2 2 1 1 1 2 3 4 6 5 6 7 8 9 11 11 13 13 12 12 11 11 10 10 10 10 10 10 11 11 12 12 13 12 11 10 9 8 8 7 8 8
1 0 -1 -1 -1 -1 -1 0 1 2 3 4 6 6 8 9 11 11 12 12 12 12 11 11 9 8 9 9 10 10 10 11 11 11 11 10 9 8 8 7 7 6 6
-1 -2 -3 -3 -3 -3 -3 -2 -2 -1 0 2 3 5 5 7 9 10 11 11 11 12 11 10 9 7 7 8 9 9 9 10 10 9 10 9 8 7 7 6 5 4 4
Height
1460 1460 1464 1467 1470 1473 1479 1485 1490 1495 1500 1503 1507 1512 1512 1518 1521 1524 1527 1529 1531 1535 1539 1540 1543 1546 1547 1549 1553 1556 1558 1558 1561 1564 1563 1562 1563 1562 1561 1561 1561 1561 1561
1451 1454 1455 1459 1459 1464 1470 1476 1482 1488 1493 1498 1501 1505 1510 1513 1517 1520 1522 1524 1526 1528 1531 1534 1536 1539 1541 1543 1547 1549 1551 1553 1556 1557 1559 1559 1558 1554 1554 1555 1555 1555 1556
1443 1445 1449 1449 1453 1452 1461 1467 1472 1478 1484 1490 1496 1502 1506 1509 1512 1512 1514 1515 1518 1521 1524 1527 1530 1532 1534 1536 1538 1541 1543 1545 1548 1550 1553 1552 1548 1547 1547 1547 1548 1549 1550
1439 1440 1439 1442 1443 1445 1450 1456 1463 1468 1474 1480 1486 1490 1493 1495 1496 1501 1506 1509 1512 1514 1516 1518 1521 1525 1527 1528 1530 1533 1535 1539 1539 1544 1543 1543 1543 1543 1542 1541 1542 1544 1544
1432 1431 1432 1435 1439 1437 1440 1445 1451 1457 1464 1470 1476 1481 1485 1489 1493 1497 1500 1502 1505 1507 1509 1511 1513 1515 1518 1520 1523 1525 1526 1529 1532 1532 1535 1536 1537 1538 1537 1534 1535 1537 1538
1429 1427 1426 1429 1432 1438 1436 1438 1444 1450 1457 1462 1467 1471 1476 1481 1485 1488 1491 1493 1496 1499 1502 1503 1505 1507 1508 1510 1512 1516 1519 1521 1523 1525 1527 1527 1528 1528 1530 1529 1528 1529 1531
1420 1422 1421 1422 1428 1431 1436 1437 1441 1445 1450 1454 1457 1462 1466 1471 1474 1477 1480 1484 1487 1489 1491 1493 1495 1497 1498 1501 1504 1507 1510 1511 1513 1515 1515 1520 1521 1522 1523 1525 1524 1523 1525
1420 1417 1412 1416 1418 1424 1432 1436 1437 1440 1444 1447 1450 1454 1458 1461 1465 1469 1472 1474 1476 1478 1482 1484 1487 1488 1490 1493 1495 1497 1499 1501 1503 1505 1506 1508 1511 1515 1516 1517 1520 1518 1518
1419 1418 1417 1413 1415 1420 1425 1430 1434 1437 1440 1441 1445 1449 1452 1454 1457 1462 1465 1467 1469 1471 1473 1476 1478 1479 1481 1484 1486 1487 1488 1490 1492 1494 1497 1499 1501 1505 1509 1511 1512 1513 1513
1416 1415 1417 1415 1412 1414 1420 1425 1427 1429 1434 1437 1440 1443 1447 1449 1453 1457 1458 1461 1463 1464 1466 1468 1470 1471 1472 1474 1477 1478 1479 1480 1481 1484 1487 1489 1492 1495 1498 1501 1503 1506 1508
1417 1413 1412 1414 1415 1415 1416 1415 1416 1420 1426 1431 1435 1438 1443 1448 1449 1450 1450 1452 1455 1457 1459 1461 1462 1462 1463 1465 1467 1469 1471 1471 1472 1475 1477 1479 1482 1485 1489 1493 1496 1498 1500
1421 1419 1417 1416 1414 1415 1418 1419 1419 1419 1420 1429 1432 1435 1437 1440 1441 1441 1442 1443 1445 1447 1450 1453 1455 1455 1455 1456 1457 1459 1461 1462 1463 1465 1467 1468 1473 1476 1479 1483 1485 1488 1491
1422 1420 1419 1419 1419 1419 1418 1420 1422 1422 1422 1427 1432 1434 1435 1435 1436 1436 1437 1437 1438 1439 1441 1443 1444 1446 1447 1447 1447 1449 1452 1454 1454 1456 1457 1460 1464 1467 1469 1473 1476 1479 1482
1424 1421 1421 1421 1421 1421 1422 1422 1424 1424 1424 1427 1428 1428 1429 1431 1432 1433 1432 1430 1430 1430 1431 1432 1433 1434 1437 1438 1438 1440 1440 1443 1444 1446 1449 1452 1454 1457 1459 1464 1468 1471 1474
1419 1419 1421 1422 1420 1420 1421 1421 1422 1422 1423 1423 1424 1425 1426 1427 1428 1428 1427 1424 1422 1422 1422 1422 1423 1424 1425 1426 1427 1429 1431 1433 1435 1436 1438 1441 1445 1450 1452 1456 1459 1461 1464
1433 1431 1430 1428 1424 1425 1423 1422 1420 1418 1419 1418 1420 1420 1421 1423 1423 1423 1422 1419 1416 1415 1415 1414 1414 1415 1414 1414 1415 1418 1419 1422 1424 1425 1428 1432 1437 1442 1445 1447 1450 1454 1455
1441 1437 1434 1434 1432 1426 1425 1419 1420 1419 1419 1416 1416 1415 1416 1417 1417 1417 1415 1413 1411 1409 1407 1406 1406 1406 1406 1406 1408 1409 1411 1412 1414 1417 1419 1424 1428 1433 1435 1438 1439 1442 1445
1444 1440 1434 1430 1427 1423 1419 1417 1417 1416 1415 1414 1412 1412 1412 1411 1410 1410 1408 1406 1405 1402 1399 1397 1397 1396 1395 1396 1399 1401 1402 1401 1403 1407 1410 1416 1420 1425 1428 1428 1429 1432 1436
1443 1438 1433 1429 1426 1423 1420 1415 1412 1410 1409 1408 1406 1406 1406 1405 1406 1404 1402 1400 1398 1395 1392 1389 1388 1387 1386 1387 1388 1390 1392 1391 1393 1398 1404 1406 1411 1416 1420 1421 1422 1425 1428
1440 1436 1433 1429 1425 1419 1415 1412 1411 1410 1407 1405 1402 1401 1401 1400 1400 1398 1396 1393 1390 1387 1385 1382 1380 1379 1377 1378 1378 1379 1381 1381 1383 1387 1393 1398 1404 1408 1411 1413 1415 1417 1422
1440 1436 1430 1425 1420 1414 1412 1409 1406 1403 1400 1397 1395 1395 1395 1394 1393 1391 1389 1386 1383 1380 1378 1377 1375 1373 1372 1371 1371 1369 1370 1371 1372 1376 1377 1386 1394 1400 1405 1408 1409 1411 1416
1434 1432 1427 1422 1416 1414 1410 1404 1398 1394 1392 1390 1391 1390 1387 1387 1384 1383 1381 1379 1378 1375 1371 1370 1367 1366 1367 1367 1366 1365 1367 1369 1360 1359 1375 1377 1385 1392 1398 1403 1406 1408 1412
1430 1426 1422 1415 1411 1409 1406 1401 1394 1391 1387 1384 1382 1381 1380 1378 1376 1374 1373 1372 1371 1369 1366 1364 1362 1360 1361 1361 1360 1360 1360 1359 1362 1362 1368 1371 1379 1387 1394 1399 1403 1404 1406
1423 1420 1416 1410 1402 1400 1397 1392 1387 1383 1381 1376 1372 1371 1369 1368 1367 1364 1363 1363 1362 1362 1359 1358 1357 1355 1355 1354 1355 1355 1354 1353 1353 1354 1358 1365 1372 1379 1385 1391 1397 1398 1401
1418 1411 1405 1400 1391 1385 1379 1375 1373 1372 1368 1364 1360 1357 1358 1356 1356 1356 1353 1352 1353 1353 1353 1350 1350 1347 1346 1347 1348 1348 1346 1346 1347 1350 1351 1357 1363 1370 1375 1383 1388 1392 1397
1409 1400 1395 1390 1381 1372 1363 1355 1357 1359 1355 1351 1346 1344 1344 1345 1345 1344 1343 1343 1345 1346 1345 1344 1341 1340 1339 1339 1339 1339 1339 1339 1340 1344 1334 1343 1350 1360 1368 1374 1379 1385 1388
Wind_Speed
36 42 46 50 48 49 45 39 36 37 37 39 42 47 43 39 38 37 34 34 33 32 33 34 36 36 36 36 35 34 33 34 31 28 31 30 28 28 30 29 29 30 29
46 34 48 49 54 54 51 45 39 36 38 40 42 44 47 43 41 40 40 38 37 36 35 36 37 39 39 39 37 38 39 38 33 33 31 32 33 36 35 33 33 33 31
46 45 45 50 55 56 55 51 45 40 38 39 42 42 42 45 44 45 44 43 42 39 38 38 38 38 40 41 40 40 41 41 39 37 30 15 24 26 25 26 27 25 22
33 50 37 48 54 58 56 55 50 47 43 40 42 45 46 48 49 47 46 45 44 43 41 40 40 40 41 43 43 43 43 41 42 40 42 42 29 15 11 16 16 18 23
28 34 42 23 47 58 57 55 53 51 49 46 41 42 46 46 46 45 46 46 45 45 45 44 42 42 42 43 44 45 47 46 45 46 44 44 44 42 39 35 36 34 31
26 21 21 15 16 41 52 55 53 52 49 47 46 43 42 42 45 46 46 46 46 45 46 46 47 45 45 45 45 44 46 48 48 49 48 47 45 44 42 42 43 39 32
22 25 33 31 16 18 41 47 49 48 47 47 47 46 45 44 44 45 47 47 47 47 48 49 49 50 49 47 46 46 46 48 49 49 51 49 49 44 38 36 37 35 28
25 25 24 35 28 18 25 37 40 47 49 48 49 47 46 48 49 48 47 47 48 49 47 48 50 50 49 48 47 47 46 47 48 49 49 49 46 45 45 39 32 31 28
25 14 11 1 9 7 10 14 23 27 39 44 46 49 49 53 53 51 50 48 48 48 49 49 49 50 50 49 48 47 47 47 48 49 49 49 47 43 40 40 41 35 30
23 15 7 10 6 6 12 14 14 12 11 22 37 40 41 39 40 45 51 51 52 52 48 48 49 49 50 48 49 49 47 48 49 49 48 49 47 43 40 37 34 33 34
22 8 5 4 8 14 10 3 5 4 4 9 20 25 25 26 29 35 42 44 48 53 47 44 44 49 51 50 49 49 48 48 49 49 50 48 45 44 40 39 37 34 33
29 27 25 14 8 9 13 11 12 2 3 6 7 10 12 17 24 27 30 36 40 46 47 44 49 48 48 50 52 49 48 49 50 49 50 50 45 43 40 36 36 34 31
28 25 27 22 19 10 6 4 6 10 11 7 4 6 10 14 18 21 27 34 37 37 40 44 47 49 54 52 53 52 50 48 49 49 49 50 45 42 42 40 36 34 30
25 24 25 24 20 17 16 12 10 11 13 14 9 9 11 15 19 20 20 22 31 38 37 41 43 46 51 56 56 55 53 49 49 49 48 47 47 44 44 40 36 32 27
32 32 27 30 18 11 12 13 16 16 16 20 22 22 19 19 23 25 25 24 24 25 38 36 39 45 48 51 55 56 54 49 49 48 49 48 48 44 41 38 35 32 30
25 28 23 24 21 28 22 17 15 14 16 18 20 21 24 29 26 28 30 27 26 27 29 34 38 40 46 50 53 54 54 50 50 49 51 49 46 42 38 35 33 31 31
26 25 20 25 26 16 22 24 20 20 18 18 17 20 23 24 29 27 30 32 30 29 31 34 36 41 45 47 50 52 52 52 51 48 51 48 46 42 40 37 34 30 29
29 32 31 28 25 26 28 28 24 21 24 23 20 20 24 27 29 30 32 34 33 31 31 35 36 40 43 46 49 51 51 52 52 49 49 44 46 44 42 40 34 33 30
28 30 32 31 28 28 30 28 26 26 25 27 28 25 24 27 33 33 32 32 34 35 31 29 36 38 40 41 44 47 49 52 54 50 47 44 46 46 43 39 36 34 30
31 31 30 30 30 31 33 34 32 33 27 27 28 29 29 31 34 35 36 35 36 35 33 32 31 36 38 37 42 45 47 54 51 48 42 44 44 46 42 38 36 34 33
28 29 31 31 34 35 35 35 35 34 35 34 30 32 34 33 32 32 29 30 31 34 34 35 33 33 34 33 33 39 43 47 45 45 43 44 45 41 39 35 34 32 29
32 30 31 31 34 36 38 41 41 41 41 38 36 36 35 38 35 32 32 30 29 31 31 34 34 34 33 34 34 38 43 44 53 40 41 42 44 38 35 32 29 29 26
30 31 31 38 42 43 42 42 41 42 46 47 39 37 38 37 37 38 37 36 35 29 32 33 34 35 33 31 32 30 34 37 39 36 37 41 40 36 34 34 34 31 29
35 34 35 38 45 43 41 45 46 46 45 46 49 41 40 40 37 40 38 33 31 32 34 33 35 33 34 32 35 33 39 42 43 41 39 41 40 39 40 38 36 34 32
43 43 42 39 43 45 45 47 44 42 45 46 48 50 41 42 37 36 38 34 28 29 29 32 31 31 35 34 31 35 37 42 43 39 38 44 47 46 45 43 40 36 32
41 41 41 40 43 47 51 54 48 42 44 45 48 48 45 38 38 35 41 34 27 28 30 31 34 29 29 30 28 30 33 43 47 43 48 50 51 48 47 45 42 37 33
Wind_Direction
245 213 209 207 207 207 209 214 216 220 217 212 207 210 213 217 222 228 229 232 236 232 226 231 232 232 231 232 232 235 238 245 248 248 252 256 261 261 265 270 273 274 277
245 231 211 208 205 204 206 209 215 221 223 220 217 216 217 220 223 224 231 235 236 238 235 231 234 234 234 235 234 233 237 244 246 241 247 254 259 256 256 261 266 275 281
240 244 216 209 208 202 203 207 211 218 225 229 223 223 222 225 224 227 232 231 236 238 240 240 236 238 238 238 238 236 236 239 241 241 234 229 240 263 269 261 264 268 267
255 243 234 212 208 207 205 208 210 215 220 226 225 226 225 224 229 230 233 235 235 237 241 243 244 242 241 242 241 242 241 238 241 239 240 244 248 254 260 263 260 263 268
282 250 230 223 216 210 207 208 211 214 216 221 228 232 232 236 236 234 235 237 239 239 241 242 245 247 246 244 245 243 242 241 241 244 244 244 249 251 253 267 265 266 270
266 251 241 232 218 213 210 207 207 212 215 222 226 230 237 242 240 237 238 241 242 243 241 244 246 248 250 250 249 247 246 244 244 246 248 248 247 250 250 256 265 272 280
330 293 245 248 234 218 214 208 211 213 217 223 227 230 236 242 246 247 245 242 243 243 246 246 246 248 250 252 252 250 248 248 246 246 249 249 250 253 258 260 264 270 276
300 324 283 243 244 216 213 215 209 211 216 223 228 230 238 242 244 245 247 246 247 250 253 253 250 252 254 254 253 252 251 250 249 249 249 250 251 249 250 252 253 259 260
282 312 333 243 206 211 208 197 219 230 224 223 229 231 235 235 240 245 247 250 252 251 250 253 253 254 254 254 254 253 252 248 249 249 249 250 253 253 250 249 250 251 257
280 244 328 10 349 296 256 240 223 232 241 238 235 230 236 240 242 246 248 249 251 251 247 249 253 254 253 253 251 252 252 250 249 248 247 248 250 252 252 249 245 245 251
19 65 90 88 65 54 54 12 303 289 204 218 233 240 248 252 252 254 253 253 254 249 242 245 251 253 252 253 251 251 252 251 249 249 247 247 248 249 247 244 244 244 248
5 11 24 19 13 14 2 41 65 158 254 297 269 263 267 271 264 257 261 257 256 251 246 241 247 251 254 253 253 253 252 251 250 248 246 246 244 243 245 240 235 239 246
342 352 359 7 15 35 23 351 353 24 58 91 24 297 271 271 276 277 267 258 259 253 251 249 248 249 250 253 253 254 254 255 255 252 244 242 237 236 233 231 232 237 240
327 334 341 338 340 343 342 336 337 325 314 317 322 349 331 306 312 298 280 266 257 255 257 255 251 246 247 251 253 253 254 253 254 252 239 234 233 230 228 228 232 235 238
331 334 348 351 342 358 352 341 327 322 311 307 302 296 294 306 306 297 294 286 273 265 252 255 253 248 245 247 251 251 252 252 252 249 235 232 234 231 230 230 230 230 234
5 1 9 356 347 354 350 356 0 329 317 303 295 293 291 292 294 298 296 289 279 270 266 259 255 252 246 247 249 250 251 252 249 242 235 233 233 232 230 229 231 234 233
14 6 340 356 1 316 304 329 337 339 326 303 289 283 282 282 288 287 290 290 287 276 268 260 258 257 254 250 249 249 249 248 247 244 238 235 234 229 225 223 225 229 226
359 355 357 349 351 349 342 333 326 325 330 314 315 316 299 296 290 284 281 284 284 282 276 264 259 259 258 255 251 248 246 243 244 243 238 237 231 229 224 221 225 224 220
357 345 339 338 332 334 340 341 333 320 324 315 310 305 302 300 295 293 291 287 289 287 282 279 265 262 262 259 254 249 242 239 241 241 241 240 231 229 225 225 221 218 219
346 342 335 325 322 321 326 329 322 319 314 316 311 304 302 295 290 289 293 290 286 288 290 281 278 268 266 265 262 257 247 243 241 234 239 237 236 230 227 223 219 216 206
342 337 333 328 316 310 315 314 311 307 303 305 310 307 293 288 284 287 288 296 296 288 288 288 282 280 275 274 272 260 256 239 236 234 228 233 230 225 224 221 219 212 203
333 328 326 323 317 312 313 309 301 292 294 305 304 295 301 284 280 274 276 288 296 297 287 285 284 280 278 275 270 260 246 258 243 235 234 230 221 218 219 204 201 198 199
327 326 320 314 311 309 307 303 296 297 293 292 292 285 287 300 274 272 273 277 283 287 289 284 283 283 279 277 270 263 257 247 242 239 241 226 227 207 206 202 200 199 200
322 320 314 308 304 302 296 293 294 293 293 288 283 282 282 279 288 270 266 271 278 281 283 286 284 285 280 275 273 269 264 254 246 237 230 216 209 202 201 199 202 205 206
316 317 314 308 303 302 297 293 290 292 291 287 281 279 277 279 280 278 261 258 269 277 285 285 286 283 278 275 277 273 270 249 240 226 219 208 202 197 198 202 203 203 202
324 320 315 311 306 303 298 296 292 286 279 278 278 276 275 276 274 281 258 249 255 272 286 291 287 282 283 280 278 274 272 254 242 225 212 204 199 199 200 202 200 201 203